Thedford, NE

10:49 AM CST on February 06, 2016 (GMT -0600)
Thedford

Weather History for KTIF - January, 2014

Change the Weather History Date:

Friday, January 3, 2014

  Actual Average (KLBF) Record (KLBF)
Temperature  
Mean Temperature 41 °F 24 °F  
Max Temperature 59 °F 38 °F 66 °F (1918)
Min Temperature 23 °F 11 °F -23 °F (1974)
Degree Days  
Heating Degree Days 24 41  
Month to date heating degree days 123  
Since 1 July heating degree days 2903  
Cooling Degree Days 0 0  
Month to date cooling degree days 0  
Year to date cooling degree days 0  
Moisture  
Dew Point 25 °F    
Average Humidity 61    
Maximum Humidity 87    
Minimum Humidity 29    
Precipitation  
Precipitation 0.00 in 0.01 in 1.35 in (1949)
Month to date precipitation 0.04  
Year to date precipitation 0.04  
Snow  
Snow 0.00 in 0.20 in 8.80 in (1949)
Month to date snowfall 0.5  
Since 1 July snowfall 11.3  
Snow Depth -    
Sea Level Pressure  
Sea Level Pressure 29.67 in    
Wind  
Wind Speed 14 mph (WSW)    
Max Wind Speed 23 mph    
Max Gust Speed 33 mph    
Visibility 10 miles    
Events      
T = Trace of Precipitation, MM = Missing Value Source: NWS Daily Summary

Daily Weather History Graph

Daily Weather History Graph

Search for Another Location

Airport or City:

Trip Planner

Search our weather history database for the weather conditions in past years. The results will help you decide how hot, cold, wet, or windy it might be!

Date:

Astronomy

Jan. 03, 2014 Rise Set
Actual Time 8:10 AM CST 5:23 PM CST
Civil Twilight 7:38 AM CST 5:55 PM CST
Nautical Twilight 7:03 AM CST 6:30 PM CST
Astronomical Twilight 6:30 AM CST 7:03 PM CST
Moon 9:34 AM CST (1/3) 8:38 PM CST (1/3)
Length of Visible Light 10h 16m
Length of Day
9h 13m
Waxing Crescent, 8% of the Moon is Illuminated
Jan 3
Waxing Crescent
Jan 7
First Quarter
Jan 15
Full
Jan 23
Last Quarter
Jan 30
New

Hourly Weather History & Observations

Time (CST) Temp. Windchill Dew Point Humidity Pressure Visibility Wind Dir Wind Speed Gust Speed Precip Events Conditions
12:15 AM 25.2 °F 12.4 °F 21.0 °F 84% 30.03 in 10.0 mi South 16.1 mph 21.9 mph N/A   Clear
12:35 AM 24.6 °F 11.3 °F 20.8 °F 86% 30.01 in 10.0 mi South 17.3 mph 23.0 mph N/A   Clear
12:55 AM 24.1 °F 10.1 °F 20.5 °F 86% 29.99 in 10.0 mi South 18.4 mph 24.2 mph N/A   Clear
1:15 AM 23.9 °F 9.9 °F 20.3 °F 86% 29.97 in 10.0 mi South 18.4 mph 23.0 mph N/A   Clear
1:35 AM 24.1 °F 9.8 °F 20.8 °F 87% 29.96 in 10.0 mi South 19.6 mph 25.3 mph N/A   Clear
1:55 AM 24.6 °F 10.9 °F 21.0 °F 86% 29.95 in 10.0 mi SSW 18.4 mph 25.3 mph N/A   Clear
2:15 AM 24.8 °F 11.9 °F 20.8 °F 85% 29.93 in 10.0 mi SSW 16.1 mph 25.3 mph N/A   Clear
2:35 AM 24.4 °F 11.9 °F 20.3 °F 84% 29.93 in 10.0 mi South 15.0 mph 21.9 mph N/A   Clear
2:55 AM 24.3 °F 11.7 °F 20.3 °F 85% 29.92 in 10.0 mi SSW 15.0 mph - N/A   Clear
3:15 AM 24.8 °F 12.9 °F 20.5 °F 84% 29.92 in 10.0 mi SSW 13.8 mph - N/A   Clear
3:35 AM 25.5 °F 12.0 °F 21.0 °F 83% 29.90 in 10.0 mi SSW 18.4 mph 24.2 mph N/A   Clear
3:55 AM 25.7 °F 12.3 °F 21.0 °F 82% 29.89 in 10.0 mi SSW 18.4 mph 24.2 mph N/A   Clear
4:15 AM 25.9 °F 12.5 °F 21.2 °F 82% 29.86 in 10.0 mi SSW 18.4 mph 23.0 mph N/A   Clear
4:35 AM 25.7 °F 12.3 °F 21.0 °F 82% 29.85 in 10.0 mi SSW 18.4 mph 25.3 mph N/A   Clear
4:55 AM 25.7 °F 13.1 °F 20.7 °F 81% 29.84 in 10.0 mi SSW 16.1 mph 21.9 mph N/A   Clear
5:15 AM 25.7 °F 14.0 °F 20.3 °F 80% 29.83 in 10.0 mi SSW 13.8 mph 20.7 mph N/A   Clear
5:35 AM 25.5 °F 13.3 °F 20.3 °F 81% 29.81 in 10.0 mi SSW 15.0 mph 21.9 mph N/A   Clear
5:55 AM 25.7 °F 13.1 °F 20.3 °F 80% 29.80 in 10.0 mi SSW 16.1 mph 21.9 mph N/A   Clear
6:15 AM 25.9 °F 13.8 °F 20.3 °F 79% 29.79 in 10.0 mi SSW 15.0 mph - N/A   Clear
6:35 AM 26.8 °F 16.5 °F 20.8 °F 78% 29.78 in 10.0 mi SW 11.5 mph 16.1 mph N/A   Clear
6:55 AM 26.6 °F 16.8 °F 20.5 °F 78% 29.77 in 10.0 mi SW 10.4 mph - N/A   Clear
7:15 AM 27.0 °F 15.6 °F 20.7 °F 77% 29.75 in 10.0 mi SSW 13.8 mph - N/A   Clear
7:35 AM 27.0 °F 19.5 °F 20.3 °F 76% 29.75 in 10.0 mi SW 6.9 mph - N/A   Clear
7:55 AM 26.6 °F 22.6 °F 20.3 °F 77% 29.73 in 10.0 mi SW 3.5 mph - N/A   Clear
8:15 AM 27.1 °F 23.2 °F 20.5 °F 76% 29.73 in 10.0 mi SW 3.5 mph - N/A   Clear
8:35 AM 28.0 °F 19.3 °F 20.8 °F 74% 29.71 in 10.0 mi SSW 9.2 mph - N/A   Clear
8:55 AM 30.0 °F 20.5 °F 21.2 °F 70% 29.71 in 10.0 mi SSW 11.5 mph - N/A   Clear
9:15 AM 32.0 °F 23.0 °F 22.1 °F 67% 29.70 in 10.0 mi SSW 11.5 mph - N/A   Clear
9:35 AM 33.1 °F 24.4 °F 22.8 °F 66% 29.69 in 10.0 mi SW 11.5 mph - N/A   Clear
9:55 AM 35.1 °F 26.9 °F 23.2 °F 62% 29.68 in 10.0 mi SW 11.5 mph - N/A   Clear
10:15 AM 38.5 °F 31.1 °F 24.3 °F 57% 29.67 in 10.0 mi SW 11.5 mph - N/A   Clear
10:35 AM 41.7 °F 35.2 °F 24.8 °F 51% 29.66 in 10.0 mi WSW 11.5 mph - N/A   Clear
10:55 AM 44.1 °F 37.4 °F 25.5 °F 48% 29.65 in 10.0 mi SW 13.8 mph 20.7 mph N/A   Clear
11:15 AM 46.8 °F - 26.2 °F 45% 29.62 in 10.0 mi SW 15.0 mph 19.6 mph N/A   Clear
11:35 AM 49.1 °F - 27.1 °F 43% 29.60 in 10.0 mi SW 17.3 mph 25.3 mph N/A   Clear
11:55 AM 52.9 °F - 26.4 °F 36% 29.59 in 10.0 mi WSW 18.4 mph 28.8 mph N/A   Clear
12:15 PM 53.4 °F - 26.6 °F 36% 29.57 in 10.0 mi WSW 17.3 mph 25.3 mph N/A   Clear
12:35 PM 55.8 °F - 26.4 °F 32% 29.55 in 10.0 mi WSW 18.4 mph 27.6 mph N/A   Clear
12:55 PM 56.7 °F - 25.9 °F 31% 29.53 in 10.0 mi WSW 23.0 mph 33.4 mph N/A   Clear
1:15 PM 57.9 °F - 26.2 °F 30% 29.52 in 10.0 mi WSW 19.6 mph 26.5 mph N/A   Clear
1:35 PM 58.1 °F - 25.7 °F 29% 29.50 in 10.0 mi WSW 21.9 mph 32.2 mph N/A   Clear
1:55 PM 58.1 °F - 26.1 °F 29% 29.48 in 10.0 mi WSW 18.4 mph 26.5 mph N/A   Clear
2:15 PM 58.3 °F - 26.4 °F 30% 29.48 in 10.0 mi WSW 17.3 mph 25.3 mph N/A   Clear
2:35 PM 58.3 °F - 26.8 °F 30% 29.47 in 10.0 mi WSW 12.7 mph 25.3 mph N/A   Clear
2:55 PM 58.5 °F - 27.1 °F 30% 29.46 in 10.0 mi WSW 15.0 mph 23.0 mph N/A   Clear
3:15 PM 59.0 °F - 27.0 °F 29% 29.45 in 10.0 mi WSW 17.3 mph 25.3 mph N/A   Clear
3:35 PM 58.3 °F - 27.3 °F 31% 29.45 in 10.0 mi WSW 15.0 mph 21.9 mph N/A   Clear
3:55 PM 58.5 °F - 27.5 °F 31% 29.45 in 10.0 mi WSW 15.0 mph 21.9 mph N/A   Clear
4:15 PM 58.6 °F - 27.3 °F 30% 29.45 in 10.0 mi WSW 13.8 mph 19.6 mph N/A   Clear
4:35 PM 57.2 °F - 27.5 °F 32% 29.44 in 10.0 mi WSW 11.5 mph 18.4 mph N/A   Clear
4:55 PM 57.0 °F - 27.1 °F 32% 29.45 in 10.0 mi West 13.8 mph - N/A   Clear
5:15 PM 55.6 °F - 27.5 °F 34% 29.46 in 10.0 mi West 11.5 mph - N/A   Scattered Clouds
5:35 PM 52.9 °F - 28.4 °F 39% 29.48 in 10.0 mi West 6.9 mph - N/A   Scattered Clouds
5:55 PM 51.3 °F - 29.3 °F 43% 29.48 in 10.0 mi WSW 8.1 mph - N/A   Clear
6:15 PM 50.0 °F - 29.7 °F 46% 29.49 in 10.0 mi Calm Calm - N/A   Clear
6:35 PM 48.9 °F - 29.8 °F 48% 29.49 in 10.0 mi West 6.9 mph - N/A   Scattered Clouds
6:55 PM 48.4 °F - 30.2 °F 49% 29.50 in 10.0 mi WNW 6.9 mph - N/A   Overcast
7:15 PM 45.7 °F 42.0 °F 30.2 °F 55% 29.51 in 10.0 mi WNW 6.9 mph - N/A   Overcast
7:35 PM 45.1 °F 42.8 °F 30.2 °F 56% 29.53 in 10.0 mi WNW 4.6 mph - N/A   Scattered Clouds
7:55 PM 45.3 °F 40.6 °F 30.2 °F 56% 29.55 in 10.0 mi NW 9.2 mph - N/A   Scattered Clouds
8:15 PM 45.9 °F 40.8 °F 30.2 °F 54% 29.56 in 10.0 mi NNW 10.4 mph - N/A   Overcast
8:35 PM 45.7 °F 41.5 °F 31.1 °F 57% 29.56 in 10.0 mi NNW 8.1 mph - N/A   Overcast
8:55 PM 44.8 °F 41.6 °F 31.8 °F 60% 29.57 in 10.0 mi NNW 5.8 mph - N/A   Overcast
9:15 PM 45.0 °F 38.2 °F 32.9 °F 63% 29.59 in 10.0 mi NNW 15.0 mph 20.7 mph N/A   Overcast
9:35 PM 42.8 °F 36.2 °F 32.4 °F 67% 29.59 in 10.0 mi NNW 12.7 mph 24.2 mph N/A   Scattered Clouds
9:55 PM 40.8 °F 34.5 °F 31.6 °F 70% 29.62 in 10.0 mi NW 10.4 mph 17.3 mph N/A   Clear
10:15 PM 40.1 °F 34.7 °F 31.1 °F 70% 29.63 in 10.0 mi NW 8.1 mph - N/A   Mostly Cloudy
10:35 PM 39.2 °F 33.6 °F 30.9 °F 72% 29.63 in 10.0 mi WNW 8.1 mph - N/A   Overcast
10:55 PM 37.6 °F 31.0 °F 30.2 °F 75% 29.65 in 10.0 mi WNW 9.2 mph - N/A   Mostly Cloudy
11:15 PM 36.5 °F 30.3 °F 29.7 °F 76% 29.66 in 10.0 mi WNW 8.1 mph - N/A   Scattered Clouds
11:35 PM 35.1 °F 29.3 °F 29.3 °F 80% 29.65 in 10.0 mi WNW 6.9 mph - N/A   Scattered Clouds
11:55 PM 36.1 °F 29.9 °F 30.4 °F 80% 29.67 in 10.0 mi West 8.1 mph - N/A   Scattered Clouds